CAPE
0 0 0 0 0 0 0 0 0 0 0 0 0 0 0 0 0 0 0 0 0 0 0 0 0 0 0 0 0 0 0 0 0 0 0 0 0 0 0 0 0 0 0 0
0 0 0 0 0 0 0 0 0 0 0 0 0 0 0 0 0 0 0 0 0 0 0 0 0 0 0 0 0 0 0 0 0 0 0 0 0 0 0 0 0 0 0 0
0 0 0 0 0 0 0 0 0 0 0 0 0 0 0 0 0 0 0 0 0 0 0 0 0 0 0 0 0 0 0 0 0 0 0 0 0 0 0 0 0 0 0 0
0 0 0 0 0 0 0 0 0 0 0 0 0 0 0 0 0 0 0 0 0 0 0 0 0 0 0 0 0 0 0 0 0 0 0 0 0 0 0 0 0 0 0 0
0 0 0 0 0 0 0 0 0 0 0 0 0 0 0 0 0 0 0 0 0 0 0 0 0 0 0 0 0 0 0 0 0 0 0 0 0 0 0 0 0 0 0 0
0 0 0 0 0 0 0 0 0 0 0 0 0 0 0 0 0 0 0 0 0 0 0 0 0 0 0 0 0 0 0 0 0 0 0 0 0 0 0 0 0 0 0 0
0 0 0 0 0 0 0 0 0 0 0 0 0 0 0 0 0 0 0 0 0 0 0 0 0 0 0 0 0 0 0 0 0 0 0 0 0 0 0 0 0 0 0 0
0 0 0 0 0 0 0 0 0 0 0 0 0 0 0 0 0 0 0 0 0 0 0 0 0 0 0 0 0 0 0 0 0 0 0 0 0 0 0 0 0 0 0 0
0 0 0 0 0 0 0 0 0 0 0 0 0 0 0 0 0 0 0 0 0 0 0 0 0 0 0 0 0 0 0 0 0 0 0 0 0 0 0 0 0 0 0 0
0 0 0 0 0 0 0 0 0 0 0 0 0 0 0 0 0 0 0 0 0 0 0 0 0 0 0 0 0 0 0 0 0 0 0 0 0 0 0 0 0 0 0 0
0 0 0 0 0 0 0 0 0 0 0 0 0 0 0 0 0 0 0 0 0 0 0 0 0 0 0 0 0 0 0 0 0 0 0 0 0 0 0 0 0 0 0 0
0 0 0 0 0 0 0 0 0 2 0 0 17 2 0 0 0 0 0 0 0 0 0 0 0 0 0 0 0 0 0 0 0 0 0 0 0 0 0 0 0 0 0 0
0 0 4 0 0 0 0 0 0 0 0 6 15 10 0 0 0 0 0 0 0 0 0 0 0 0 0 0 0 0 0 0 0 0 0 0 0 0 0 0 0 0 0 0
0 6 14 0 0 0 1 0 0 0 8 10 15 18 0 0 0 0 0 0 0 0 0 0 0 0 0 0 0 0 0 0 0 0 0 0 0 0 0 0 0 0 0 0
0 1 0 0 0 1 0 0 0 0 0 1 0 0 0 0 0 0 0 0 0 0 0 0 0 0 0 0 0 0 0 0 0 0 0 0 0 0 0 0 0 0 0 0
0 1 0 0 0 0 0 0 0 0 0 0 0 0 0 0 0 0 0 0 0 0 0 0 0 0 0 0 0 0 0 0 0 0 0 0 0 0 0 0 0 0 0 0
0 0 0 0 0 0 0 0 0 0 0 0 0 0 0 0 0 0 0 0 0 0 0 0 0 0 0 0 0 0 0 0 0 0 0 0 0 0 0 0 0 0 0 0
0 0 0 0 0 0 0 0 0 0 0 0 0 0 0 0 0 0 0 0 0 0 0 0 0 0 0 0 0 0 0 0 0 0 0 0 0 0 0 0 0 0 0 0
0 0 0 0 0 0 0 0 0 0 0 0 0 0 0 0 0 0 0 0 0 0 0 0 0 0 0 0 0 0 0 0 0 0 0 0 0 0 0 0 0 0 0 0
0 0 0 0 0 0 0 0 0 0 0 0 0 0 0 0 0 0 0 0 0 0 0 0 0 0 0 0 0 0 0 0 0 0 0 0 0 0 0 0 0 0 0 0
0 0 0 0 0 0 0 0 0 0 0 0 0 0 0 0 0 0 0 0 0 0 0 0 0 0 0 0 0 0 0 0 0 0 0 0 0 0 0 0 0 0 0 0
0 0 0 0 0 0 0 0 0 0 0 0 0 0 0 0 0 0 0 0 0 0 0 0 0 0 0 0 0 0 0 0 0 0 0 0 0 0 0 0 0 0 0 0
0 0 0 0 0 0 0 0 0 0 0 0 0 0 0 0 0 0 0 0 0 0 0 0 0 0 0 0 0 0 0 0 0 0 0 0 0 0 0 0 0 0 0 0
0 0 0 0 0 0 0 0 0 0 0 0 0 0 0 0 0 0 0 0 0 0 0 0 0 0 0 0 0 0 0 0 0 0 0 0 0 0 0 0 0 0 0 0
0 0 0 0 0 0 0 0 0 0 0 0 0 0 0 0 0 0 0 0 0 0 0 0 0 0 0 0 0 0 0 0 0 0 0 0 0 0 0 0 0 0 1 0
0 0 0 0 0 0 0 0 0 0 0 0 0 0 0 0 0 0 0 0 0 0 0 0 0 0 0 0 0 0 0 0 0 0 0 0 0 0 0 0 0 0 0 0
CIN
0 0 0 0 0 0 0 0 0 0 0 0 0 0 0 0 0 0 0 0 0 0 0 0 0 0 0 0 0 0 0 0 0 0 0 0 0 0 0 0 0 0 0 0
0 0 0 0 0 0 0 0 0 0 0 0 0 0 0 0 0 0 0 0 0 0 0 0 0 0 0 0 0 0 0 0 0 0 0 0 0 0 0 0 0 0 0 0
0 0 0 0 0 0 0 0 0 0 0 0 0 0 0 0 0 0 0 0 0 0 0 0 0 0 0 0 0 0 0 0 0 0 0 0 0 0 0 0 0 0 0 0
0 0 0 0 0 0 0 0 0 0 0 0 0 0 0 0 0 0 0 0 0 0 0 0 0 0 0 0 0 0 0 0 0 0 0 0 0 0 0 0 0 0 0 0
0 0 0 0 0 0 0 0 0 0 0 0 0 0 0 0 0 0 0 0 0 0 0 0 0 0 0 0 0 0 0 0 0 0 0 0 0 0 0 0 0 0 0 0
0 0 0 0 0 0 0 0 0 0 0 0 0 0 0 0 0 0 0 0 0 0 0 0 0 0 0 0 0 0 0 0 0 0 0 0 0 0 0 0 0 0 0 0
0 0 0 0 0 0 0 0 0 0 0 0 0 0 0 0 0 0 0 0 0 0 0 0 0 0 0 0 0 0 0 0 0 0 0 0 0 0 0 0 0 0 0 0
0 0 0 0 0 0 0 0 0 0 0 0 0 0 0 0 0 0 0 0 0 0 0 0 0 0 0 0 0 0 0 0 0 0 0 0 0 0 0 0 0 0 0 0
0 0 0 0 0 0 0 0 0 0 0 0 0 0 0 0 0 0 0 0 0 0 0 0 0 0 0 0 0 0 0 0 0 0 0 0 0 0 0 0 0 0 0 0
0 0 0 0 0 0 0 0 0 0 0 0 0 0 0 0 0 0 0 0 0 0 0 0 0 0 0 0 0 0 0 0 0 0 0 0 0 0 0 0 0 0 0 0
0 0 0 0 0 0 0 0 0 0 0 0 -3 0 0 0 0 0 0 0 0 0 0 0 0 0 0 0 0 0 0 0 0 0 0 0 0 0 0 0 0 0 0 0
0 0 0 0 0 0 0 0 0 -26 0 0 -5 -7 0 0 0 0 0 0 0 0 0 0 0 0 0 0 0 0 0 0 0 0 0 0 0 0 0 0 0 0 0 0
0 -4 -3 0 0 0 0 -3 -9 0 -5 -8 -2 -11 0 0 0 0 0 0 0 0 0 0 0 0 0 0 0 0 0 0 0 0 0 0 0 0 0 0 0 0 0 0
0 -25 -6 0 0 0 -8 0 -4 0 -1 -3 -8 -17 0 0 0 0 0 0 0 0 0 0 0 0 0 0 0 0 0 0 0 0 0 0 0 0 0 0 0 0 0 0
-3 -20 0 0 0 -1 0 0 0 0 0 0 0 0 0 0 0 0 0 0 0 0 0 0 0 0 0 0 0 0 0 0 0 0 0 0 0 0 0 0 0 0 0 0
0 -2 0 0 0 0 0 0 0 0 0 0 0 0 0 0 0 0 0 0 0 0 0 0 0 0 0 0 0 0 0 0 0 0 0 0 0 0 0 0 0 0 0 0
0 0 -3 0 0 0 0 0 0 0 0 0 0 0 0 0 0 0 0 0 0 0 0 0 0 0 0 0 0 0 0 0 0 0 0 0 0 0 0 0 0 0 0 0
0 0 0 0 0 0 0 0 0 0 0 0 0 0 0 0 0 0 0 0 0 0 0 0 0 0 0 0 0 0 0 0 0 0 0 0 0 0 0 0 0 0 0 0
0 0 0 0 0 0 0 0 0 0 0 0 0 0 0 0 0 0 0 0 0 0 0 0 0 0 0 0 0 0 0 0 0 0 0 0 0 0 0 0 0 0 0 0
0 0 0 0 0 0 0 0 0 0 0 0 0 0 0 0 0 0 0 0 0 0 0 0 0 0 0 0 0 0 0 0 0 0 0 0 0 0 0 0 0 0 0 0
0 0 0 0 0 0 0 0 0 0 0 0 0 0 0 0 0 0 0 0 0 0 0 0 0 0 0 0 0 0 0 0 0 0 0 0 0 0 0 0 0 0 0 0
0 0 0 0 0 0 0 0 0 0 0 0 0 0 0 0 0 0 0 0 0 0 0 0 0 0 0 0 0 0 0 0 0 0 0 0 0 0 0 0 0 0 0 0
0 0 0 0 0 0 0 0 0 0 0 0 0 0 0 0 0 0 0 0 0 0 0 0 0 0 0 0 0 0 0 0 0 0 0 0 0 0 0 0 0 0 0 0
0 0 0 0 0 0 0 0 0 0 0 0 0 0 0 0 0 0 0 0 0 0 0 0 0 0 0 0 0 0 0 0 0 0 0 0 0 0 0 0 0 0 0 0
0 0 0 0 0 0 0 0 0 0 0 0 0 0 0 0 0 0 0 0 0 0 0 0 0 0 0 0 0 0 0 0 0 0 0 0 0 0 0 0 0 0 0 0
0 0 0 0 0 0 0 0 0 0 0 0 0 0 0 0 0 0 0 0 0 0 0 0 0 0 0 0 0 0 0 0 0 0 0 0 0 0 0 0 0 0 0 0
Wind_Speed
23 26 29 28 26 32 36 38 43 37 38 44 39 48 41 42 31 35 39 35 40 42 40 35 34 30 24 20 15 14 16 18 19 20 20 22 23 23 23 23 22 22 22 22
28 32 26 28 27 30 33 41 42 40 36 38 47 51 58 34 19 19 19 43 37 36 35 34 32 33 32 25 17 13 13 14 16 19 21 23 22 24 25 24 24 23 23 23
31 33 27 27 29 33 35 38 42 44 43 41 47 43 30 32 34 30 31 33 32 32 31 32 36 37 37 34 24 13 10 11 14 17 18 21 22 25 25 26 26 25 24 23
30 26 26 28 30 28 39 31 36 41 44 43 37 56 37 36 32 34 31 21 26 26 31 34 37 44 41 37 28 23 17 14 13 14 15 17 20 22 24 25 27 26 24 24
30 30 32 33 32 25 36 32 35 37 40 43 37 42 42 35 37 25 25 25 29 31 33 42 43 42 40 37 33 27 20 16 14 13 15 17 20 21 22 22 24 26 26 25
35 31 32 33 30 28 29 34 36 36 37 46 39 37 42 30 24 25 31 35 42 43 40 39 37 37 38 37 33 30 25 22 18 17 19 20 22 24 23 22 23 24 26 26
37 36 32 30 36 32 30 34 43 44 41 47 35 40 41 38 44 42 46 45 35 36 36 37 38 37 37 37 35 32 29 26 23 23 24 28 31 30 27 25 24 23 25 27
46 54 35 30 31 36 35 34 40 51 53 53 41 49 51 38 43 46 33 30 33 35 34 34 37 38 36 36 37 36 32 29 28 28 27 26 29 31 31 29 27 26 25 25
44 50 31 31 33 33 37 41 39 48 46 53 54 52 56 56 38 32 35 37 38 36 36 37 37 38 39 37 36 35 33 31 31 31 31 32 32 29 29 28 27 28 29 27
35 51 40 38 38 38 38 36 45 41 53 60 50 56 56 57 42 40 43 41 39 38 37 38 37 37 37 36 36 34 34 34 34 34 34 34 36 35 34 28 23 24 28 28
39 43 52 46 44 45 41 42 42 46 47 58 62 54 41 40 39 42 40 38 37 38 39 39 38 36 36 37 38 39 38 38 38 38 38 38 38 38 38 34 30 29 30 30
36 39 44 52 45 42 45 46 42 47 49 52 55 53 32 31 33 36 37 39 40 41 42 41 41 41 41 41 42 42 41 42 41 42 41 40 39 40 41 39 38 35 36 34
32 40 53 51 46 36 37 36 35 37 43 57 62 55 24 24 29 33 38 40 41 42 43 45 46 47 46 46 45 44 44 44 44 43 44 43 42 42 42 43 43 41 41 39
34 43 49 59 52 46 51 51 45 48 58 57 52 49 43 43 45 42 41 41 43 45 49 48 47 47 47 45 45 46 45 45 45 45 44 44 44 45 45 44 44 44 43 42
35 51 49 50 50 48 49 52 54 56 55 57 57 57 54 48 46 43 44 43 45 47 48 48 47 48 47 47 47 47 46 46 47 48 48 48 48 47 47 47 47 47 47 48
38 51 47 55 50 47 54 54 54 54 55 55 54 57 41 38 39 41 43 41 44 48 48 48 47 48 48 49 49 49 48 48 48 49 50 50 51 52 51 51 49 49 49 47
43 47 51 64 52 53 62 56 54 55 53 53 58 48 36 39 39 39 41 37 43 46 48 50 49 50 52 52 50 52 52 51 52 52 52 53 54 54 54 54 53 52 51 48
45 47 49 60 54 73 57 45 44 47 43 38 36 36 37 39 37 39 38 38 45 47 49 50 49 51 52 52 53 53 54 54 55 54 54 53 55 56 55 55 55 55 51 50
42 48 53 58 61 58 54 45 44 44 47 34 36 39 40 39 39 44 36 38 45 47 48 49 47 51 53 54 54 55 56 56 58 58 57 57 58 60 57 57 57 57 55 52
35 36 43 46 54 59 44 33 31 32 52 29 36 42 43 41 50 50 39 39 44 47 48 50 50 52 53 55 53 57 58 60 61 60 61 60 61 62 61 60 59 57 55 55
41 39 44 46 50 48 35 31 27 47 46 33 39 42 43 45 42 44 40 44 45 47 49 47 49 54 55 54 54 59 60 62 61 60 62 64 64 64 64 64 62 61 60 56
38 38 39 37 44 51 28 27 35 36 44 46 44 44 45 42 40 41 44 46 49 52 53 52 54 56 56 55 56 61 63 62 61 63 67 68 68 67 66 66 65 62 59 56
38 32 38 35 36 28 27 40 47 43 43 44 41 43 40 41 42 42 44 47 49 50 52 54 56 57 58 57 57 62 65 64 66 68 71 72 71 69 68 67 67 63 59 58
35 31 39 43 38 39 43 43 39 38 38 37 38 40 39 41 40 43 46 48 50 52 54 53 56 60 64 62 62 63 66 66 69 73 75 73 72 71 68 65 63 63 62 59
31 32 38 42 36 38 38 35 36 38 37 36 35 35 37 39 42 44 47 50 52 53 55 55 58 62 66 67 67 65 65 66 69 70 70 69 68 68 68 64 62 60 59 57
28 34 37 43 36 36 40 39 35 35 35 35 37 38 37 38 42 44 48 49 51 54 56 60 62 63 64 65 66 64 62 61 63 65 62 61 61 61 61 63 65 60 61 59
Wind_Direction
311 304 303 304 299 308 307 306 306 310 313 308 272 305 311 312 312 268 269 268 312 306 294 319 325 330 331 321 301 277 267 263 254 249 248 254 244 251 253 250 248 242 242 242
305 296 301 310 308 304 304 304 306 311 316 311 307 274 293 312 306 311 312 301 313 308 303 319 328 329 327 331 323 301 273 260 245 246 250 266 258 262 260 257 254 247 244 243
294 304 312 307 307 306 305 304 307 308 312 311 309 312 320 321 321 325 321 317 315 321 331 329 326 328 325 319 323 319 298 273 260 259 260 270 275 277 266 260 256 249 243 240
303 311 309 308 307 308 302 310 309 308 310 310 317 303 313 319 322 322 325 332 336 336 333 332 329 327 325 327 326 318 311 302 287 273 263 247 260 267 269 262 261 253 245 242
304 307 306 302 305 308 305 311 308 307 306 306 308 307 309 316 316 325 335 344 339 338 335 329 327 328 327 328 327 325 319 309 299 278 271 268 270 271 277 268 261 256 252 248
299 308 303 303 306 305 312 309 308 305 303 297 302 302 307 315 322 323 331 332 325 324 326 327 333 336 339 340 337 334 328 320 310 297 289 281 278 281 278 271 264 259 255 252
303 300 302 302 301 306 305 305 303 300 298 294 303 297 292 299 304 310 314 317 327 328 328 331 333 339 343 345 345 343 335 326 317 307 298 292 288 286 282 278 273 266 260 256
299 295 299 302 299 301 299 296 292 295 294 294 295 289 290 300 308 311 322 326 328 330 332 332 335 336 340 341 344 341 335 327 318 310 307 303 297 291 287 282 278 271 266 260
296 293 304 300 302 301 300 293 299 292 292 292 289 290 293 297 308 314 315 318 319 323 325 328 333 334 334 336 337 339 337 333 326 317 310 304 300 297 292 286 281 278 273 269
300 295 299 300 300 296 295 301 294 295 293 289 291 289 290 294 300 306 309 311 316 319 321 325 328 331 331 333 335 334 333 329 325 320 314 308 298 296 291 289 285 279 275 271
300 293 292 298 294 295 296 293 292 294 288 290 292 293 296 297 302 304 308 311 316 318 318 320 322 324 325 327 328 326 324 320 320 318 316 311 302 298 291 288 287 283 279 273
300 298 291 291 295 296 293 291 291 288 291 292 292 292 303 303 305 307 306 309 313 315 316 317 317 317 318 319 319 318 319 316 314 311 314 312 310 302 293 291 287 284 279 276
302 295 295 297 298 303 296 296 293 294 297 290 291 295 307 315 314 312 308 310 312 314 315 314 315 314 314 315 314 315 315 313 313 311 310 309 308 307 301 294 290 286 282 279
302 291 287 287 290 295 293 291 293 293 291 292 288 294 298 302 304 307 307 307 309 311 312 312 314 316 315 316 315 313 314 314 313 310 308 307 305 306 306 303 298 290 285 282
297 290 290 290 292 293 292 291 290 289 291 289 292 292 295 298 301 303 304 304 306 308 310 312 312 314 314 315 315 314 313 313 312 308 305 305 304 305 306 305 303 297 290 285
296 291 293 291 292 293 291 290 290 290 292 292 292 292 298 300 302 303 305 305 307 308 309 310 311 312 313 313 312 313 312 313 312 308 305 304 303 303 304 304 303 301 299 293
294 294 292 289 294 294 287 288 290 292 291 292 291 296 300 301 301 303 306 306 309 309 309 309 309 310 310 310 310 309 307 309 309 307 306 306 305 304 304 303 301 300 300 299
292 292 293 291 294 285 292 296 294 293 294 297 299 300 302 303 303 305 306 306 309 310 310 309 309 309 309 309 307 307 305 305 306 306 307 307 306 305 303 302 300 298 300 297
283 287 289 287 286 290 292 294 295 294 294 295 300 304 305 307 305 303 304 305 310 311 310 311 310 310 309 307 307 305 303 303 302 301 302 303 303 302 301 300 299 298 296 294
294 286 285 290 289 289 297 302 303 303 293 296 303 305 306 307 300 303 307 307 311 312 312 311 311 310 309 309 308 306 303 302 301 300 299 299 299 299 297 297 295 296 295 293
296 295 286 286 288 292 299 303 305 294 300 306 308 306 305 303 300 306 309 308 312 313 313 314 312 310 310 310 309 305 304 302 302 300 299 298 297 296 294 293 293 292 292 292
298 298 296 296 292 293 303 305 300 306 305 305 306 306 307 307 306 306 307 309 312 313 313 314 312 311 312 311 309 305 303 304 302 300 298 297 296 294 292 291 290 289 289 289
298 297 297 293 297 309 308 304 304 307 305 306 307 309 310 309 309 309 310 311 313 314 314 315 313 312 311 311 309 306 304 304 302 299 297 296 295 293 291 289 287 286 284 283
300 300 295 296 298 299 301 304 306 308 308 309 310 311 311 310 311 312 313 314 315 315 316 316 315 313 311 311 309 307 306 305 301 298 296 295 293 292 290 288 286 283 280 278
303 308 302 298 302 305 303 304 308 309 310 311 314 315 315 314 314 315 314 315 316 317 317 318 316 315 312 312 310 309 307 305 302 300 297 295 293 291 288 286 284 282 279 276
300 299 298 298 304 305 304 307 310 312 312 313 314 315 318 317 316 317 317 319 319 319 320 319 318 317 316 314 312 311 310 307 304 301 299 298 295 293 290 286 282 280 277 276